Location: Rainwater Observatory
(33.2833°N, 89.3833°W)
Time: 08:06:43
(UTC-05:00)

Daily predictions for brighter satellites

Satellite Brightness Start Highest point End
(mag) Time Altitude Azimuth Time Altitude Azimuth Time Altitude Azimuth
Cosmos 2184 Rocket 4.0 20:16:10 10° S 20:22:16 70° E 20:28:24 10° N
CENTAUR R/B 3.5 20:22:47 10° NW 20:30:46 69° WSW 20:39:00 10° SSE
Cosmos 1452 Rocket 3.6 20:25:55 10° S 20:31:04 60° ESE 20:36:17 10° NNE
Cosmos 1184 Rocket 4.3 20:33:44 10° SE 20:36:14 20° E 20:38:44 10° NE
SL-08 ROCKET BODY 4.4 20:30:14 10° S 20:36:15 83° E 20:42:12 10° N
Cosmos 1190 Rocket 4.0 20:31:59 10° NNW 20:37:11 71° ENE 20:42:21 10° SSE
Cosmos 1674 Rocket 3.6 20:37:31 10° N 20:41:55 59° E 20:46:14 10° SSE
Cosmos 2297 4.5 20:37:31 10° SSE 20:42:25 30° ESE 20:47:20 10° NE
CZ-2D R/B 3.4 20:40:04 10° S 20:43:51 78° WSW 20:47:41 10° NNW
H-2A R/B 3.3 20:42:43 10° WSW 20:46:12 56° S 21:03:05 10° E
Okean 2 Rocket 4.1 20:47:09 10° SSE 20:50:51 27° E 20:54:33 10° NNE
Cosmos 1782 Rocket 4.1 20:51:30 10° SSE 20:55:37 38° E 20:59:47 10° NNE
Cosmos 1606 3.0 20:52:23 10° N 20:56:12 49° E 20:59:21 14° SSE
Meteor 1-10 Rocket 4.4 20:51:03 10° N 20:56:50 80° W 21:02:28 10° S
CZ-4 DEB 2.7 20:55:36 13° SSE 20:58:17 66° ENE 21:01:26 10° N
EO 1 Delta rocket 4.3 20:55:38 10° NNE 21:00:51 44° E 21:05:20 10° SSE
Resurs 01 Rocket 4.4 20:59:54 10° SW 21:02:39 16° W 21:05:25 10° NW
USA 186 2.8 20:59:57 10° S 21:02:57 44° W 21:06:08 10° NNW
ALOS 3.2 20:59:26 10° S 21:03:55 47° W 21:08:26 10° NNW
Cosmos 1242 Rocket 4.1 21:01:06 10° NNE 21:03:56 21° ENE 21:04:46 19° E
Cosmos 1862 3.2 21:01:20 10° S 21:05:24 80° E 21:09:29 10° N
Sich 1 Rocket 4.1 21:01:14 10° SSW 21:05:47 66° W 21:10:20 10° N
Cosmos 1174 2.9 21:03:17 10° NNW 21:06:20 87° ENE 21:07:52 25° SSE
Cosmos 676 Rocket 3.9 21:03:17 10° NNW 21:08:31 82° ENE 21:12:56 15° SSE
COS B Rocket 3.3 21:05:34 10° NNE 21:09:10 45° E 21:10:45 25° SSE
Lacrosse 5 rocket 2.1 21:07:19 10° S 21:10:46 27° ESE 21:14:03 10° ENE
Cosmos 1954 Rocket 4.0 21:05:48 10° N 21:10:59 65° ENE 21:14:41 19° SSE
OAO 3 Rocket 3.2 21:06:09 10° WSW 21:11:08 86° SSE 21:15:30 13° ENE
GPS 2-05 Rocket1 3.4 21:07:38 10° WNW 21:11:20 58° N 21:13:49 19° ENE
Nadezhda 3 Rocket 4.0 21:06:20 10° N 21:12:41 69° E 21:18:31 12° SSE
ATLAS 2A CENTAUR R/B 2.1 21:10:26 10° WSW 21:12:50 18° S 21:12:54 18° S
Cosmos 1408 2.5 21:09:23 10° S 21:13:02 86° E 21:16:42 10° N
SJ-11-01 4.2 21:09:11 14° SSE 21:13:16 78° ENE 21:18:01 10° N
Cosmos 1975 Rocket 3.6 21:10:14 10° N 21:14:19 39° E 21:16:09 26° SE
H-2A R/B 4.4 21:11:34 10° SSW 21:14:54 32° W 21:18:17 10° NNW
ATLAS 5 CENTAUR R/B 4.0 21:10:53 10° NW 21:16:17 31° WSW 21:21:54 10° S
Centaur AC-119 3.2 21:15:27 10° SW 21:16:35 15° SSW 21:16:35 15° SSW
Cosmos 1908 Rocket 4.2 21:15:40 10° SSW 21:19:58 56° W 21:24:21 10° N
Meteor 1-27 Rocket 3.7 21:16:11 10° N 21:21:44 84° W 21:26:43 13° S
Cosmos 1378 Rocket 3.4 21:17:58 10° N 21:22:18 84° E 21:25:11 21° S
Cosmos 1741 Rocket 4.5 21:24:13 10° N 21:29:11 43° ENE 21:31:03 31° ESE
Nimbus 7 Rocket 4.3 21:25:50 10° NNE 21:31:49 81° ESE 21:37:50 10° SSW
Cosmos 1825 3.4 21:33:06 10° SSW 21:36:42 41° W 21:40:21 10° N
Envisat 2.9 21:35:07 26° SSE 21:38:03 88° ENE 21:43:09 10° NNW
Cosmos 2341 Rocket 4.3 21:33:34 10° SSW 21:39:50 69° W 21:46:05 10° N
SEDSat Delta rocket 2.8 21:36:06 10° WSW 21:40:34 64° S 21:41:22 51° ESE
Cosmos 614 Rocket 4.2 21:36:51 10° N 21:41:48 52° ENE 21:43:08 40° ESE
Meteosat 1 Rocket2 4.4 21:37:21 10° W 21:42:32 45° S 21:45:16 32° SE
SL-8 Rocket 3.9 21:38:03 18° S 21:42:50 72° E 21:49:04 10° N
deb Chang Zheng 4 4.2 21:39:13 10° N 21:43:34 58° WNW 21:47:56 10° SSW
Cosmos 1833 Rocket 3.6 21:38:45 10° N 21:43:48 33° ENE 21:45:06 29° E
Terra 4.0 21:44:32 12° ENE 21:44:32 12° ENE 21:45:58 10° NE
USA 245 4.4 21:46:36 29° NE 21:46:36 29° NE 21:49:44 10° N
ERS-1 Rocket 3.8 21:43:05 15° S 21:46:59 48° W 21:51:52 10° NNW
Cosmos 2278 Rocket 4.0 21:42:38 10° SW 21:47:39 32° WNW 21:52:42 10° N
H-2A R/B 2.1 21:46:49 37° S 21:48:27 72° WSW 21:52:40 10° NNW
Cosmos 1939 Rocket 3.7 21:50:56 27° SSW 21:52:36 44° W 21:56:22 10° NNW
Atlas Centaur 2 3.0 21:50:30 10° WSW 21:52:19 18° SW 21:52:19 18° SW
Timation 1 Rocket 4.2 21:49:55 17° S 21:54:34 67° ESE 22:00:32 10° NNE
Okean 3 4.4 21:52:48 10° NNW 21:56:53 45° W 21:58:47 27° SSW
Cosmos 2151 Rocket 3.5 21:56:55 63° SE 21:57:27 71° E 22:01:59 10° NNE
Cosmos 1140 Rocket 3.7 21:53:41 10° NNW 21:58:47 65° WSW 22:00:42 37° S
COSMOS 2487 4.1 21:55:55 10° NW 21:59:05 29° W 22:00:03 25° SW
Meteor 1-25 Rocket 4.4 21:58:34 46° SE 21:59:51 56° E 22:05:32 10° NNE
Timation 2 Rocket 3.8 21:55:58 10° NNW 22:01:57 80° WSW 22:04:05 42° S
Cosmos 1238 Rocket 4.4 22:00:43 10° NNW 22:04:00 31° W 22:06:08 20° SW
SPOT 5 3.2 22:02:47 40° S 22:04:43 74° WSW 22:10:05 10° NNW
CZ-4B R/B 3.2 22:02:55 10° NNE 22:07:47 77° ESE 22:08:19 68° SSE
Cosmos 864 Rocket 4.3 22:09:39 42° S 22:11:53 83° E 22:18:05 10° N
Cosmos 2082 Rocket 2.1 22:06:13 10° NNW 22:11:55 76° ENE 22:12:49 62° SE
Lacrosse 5 1.7 22:11:40 10° SW 22:16:46 88° SE 22:21:53 10° NE
Cosmos 1812 4.5 22:13:18 10° NNE 22:15:11 24° NNE 22:15:11 24° NNE
H-2A R/B 2.9 22:20:50 36° ENE 22:20:50 36° ENE 22:25:18 10° N
Cosmos 2366 rocket 4.1 22:22:11 34° SSW 22:25:04 72° W 22:31:25 10° N
Meteor 1-18 Rocket 4.2 22:22:04 10° N 22:28:01 83° E 22:28:37 73° SSE
NOAA 11 4.0 22:28:28 78° SSE 22:28:51 88° ENE 22:34:23 10° NNW
SPOT 1/Viking Rocket 3.7 22:35:56 65° WSW 22:36:11 66° WSW 22:41:23 10° NNW
Lacrosse 5 rocket 3.4 22:46:37 10° W 22:49:55 25° NW 22:53:05 10° NNE
ARGOS 3.5 22:50:37 55° W 22:50:37 55° W 22:55:52 10° NNW
Cosmos 2369 Rocket 3.5 22:55:52 28° NE 22:55:52 28° NE 22:58:36 10° NNE
USA 229 DEB 3.8 22:46:39 10° NW 22:53:44 70° WSW 22:54:27 65° SSW
USA 229 3.7 22:46:45 10° NW 22:53:51 70° WSW 22:54:33 66° SSW
OAO 3 Rocket 4.2 22:49:54 10° W 22:53:20 43° WNW 22:53:20 43° WNW
Meteor 1-11 Rocket 4.3 22:56:17 50° NE 22:56:17 50° NE 23:00:39 10° NNE
NOSS 3-1 (A) 4.4 23:04:41 10° NNW 23:12:11 51° NE 23:12:56 49° ENE
Cosmos 1943 Rocket 4.4 23:21:41 14° NE 23:21:41 14° NE 23:22:31 10° NE
Terra 3.3 23:23:26 34° NW 23:23:26 34° NW 23:26:13 10° NNW
Cosmos 1833 Rocket 4.3 23:22:51 10° NW 23:26:48 27° W 23:26:48 27° W
ATLAS 2AS CENTAUR R/B 4.3 23:26:05 10° N 23:32:49 28° NE 23:34:23 26° ENE
NOSS 3-1 (C) 4.0 23:32:55 10° NNW 23:40:23 83° NW 23:40:23 83° NW
USA 234 3.5 23:38:53 10° NE 23:45:19 63° NW 23:45:22 63° NW
